Probability
6 5 4 1 0 0 0 0 0 0 0 0 0 0 0 0 0 0 0 0 0 0 0 0 0 0 0 0 0 0 0 0 0 0 0 0 0 1 3 4 3 2 2
5 5 4 2 1 1 0 0 0 0 0 0 0 0 0 0 0 0 0 0 0 0 0 0 0 0 0 0 0 0 0 0 0 0 0 0 0 1 3 3 2 1 1
3 3 3 3 3 2 1 0 0 0 0 0 0 0 0 0 0 0 0 0 0 0 0 0 0 0 0 0 0 0 0 0 0 0 0 0 0 1 2 2 1 0 0
1 2 2 3 3 3 2 1 0 0 0 0 0 0 0 0 0 0 0 0 0 0 0 0 0 0 0 0 0 0 0 0 0 0 0 0 0 0 1 1 0 0 0
0 0 1 2 3 3 2 1 0 0 0 0 0 0 0 0 0 0 0 0 0 0 0 0 0 0 0 0 0 0 0 0 0 0 0 0 0 0 0 0 0 0 0
0 0 0 1 2 3 3 1 0 0 0 0 0 0 0 0 0 0 0 0 0 0 0 0 0 0 0 0 0 0 0 0 0 0 0 0 0 0 0 0 0 0 0
0 0 0 0 1 3 3 2 1 0 0 0 0 0 0 0 0 0 0 0 0 0 0 0 0 0 0 0 0 0 0 0 0 0 0 0 0 0 0 0 0 0 0
0 0 0 0 1 2 3 3 1 0 0 0 0 0 0 0 0 0 0 0 0 0 0 0 0 0 0 0 0 0 0 0 0 0 0 0 0 0 0 0 0 0 0
0 0 0 0 0 1 2 2 1 0 0 0 0 0 0 0 0 0 0 0 0 0 0 0 0 0 0 0 0 0 0 0 0 0 0 0 0 0 0 0 0 0 0
0 0 0 0 0 0 1 1 1 0 0 0 0 0 0 0 0 0 0 0 0 0 0 0 0 0 0 0 0 0 0 0 0 0 0 0 0 0 0 0 0 0 0
0 0 0 0 0 0 0 0 0 0 0 0 0 0 0 0 0 0 0 0 0 0 0 0 0 0 0 0 0 0 0 0 0 0 0 0 0 0 0 0 0 0 0
0 0 0 0 0 0 0 0 0 0 0 0 0 0 0 0 0 0 0 0 0 0 0 0 0 0 0 0 0 0 0 0 0 0 0 0 0 0 0 0 0 0 0
0 0 0 0 0 0 0 0 0 0 0 0 0 0 0 0 0 0 0 0 0 0 0 0 0 0 0 0 0 0 0 0 0 0 0 0 0 0 0 0 0 0 0
0 0 0 0 0 0 0 0 0 0 0 0 0 0 0 0 0 0 0 0 0 0 0 0 0 0 0 0 0 0 0 0 0 0 0 0 0 0 0 0 0 0 0
0 0 0 0 0 0 0 0 0 0 0 0 0 0 0 0 0 0 0 0 0 0 0 0 0 0 0 0 0 0 0 0 0 0 0 0 0 0 0 0 0 0 0
0 0 0 0 0 0 0 0 0 0 0 0 0 0 0 0 0 0 0 0 0 0 0 0 0 0 0 0 0 0 0 0 0 0 0 0 0 0 0 0 0 0 0
0 0 0 0 0 0 0 0 0 0 0 0 0 0 0 0 0 0 0 0 0 0 0 0 0 0 0 0 0 0 0 0 0 0 0 0 0 0 0 0 0 0 0
0 0 0 0 0 0 0 0 0 0 0 0 0 0 0 0 0 0 0 0 0 0 0 0 0 0 0 0 0 0 0 0 0 0 0 0 0 0 0 0 0 0 0
0 0 0 0 0 0 0 0 0 0 0 0 0 0 0 0 0 0 0 0 0 0 0 0 0 0 0 0 0 0 0 0 0 0 0 0 0 0 0 0 0 0 0
0 0 0 0 0 0 0 0 0 0 0 0 0 0 0 0 0 0 0 0 0 0 0 0 0 0 0 0 0 0 0 0 0 0 0 0 0 0 0 0 0 0 0
0 0 0 0 0 0 0 0 0 0 0 0 0 0 0 0 0 0 0 0 0 0 0 0 0 0 0 0 0 0 0 0 0 0 0 0 0 0 0 0 0 0 0
0 0 0 0 0 0 0 0 0 0 0 0 0 0 0 0 0 0 0 0 0 0 0 0 0 0 0 0 0 0 0 0 0 0 0 0 0 0 0 0 0 0 0
0 0 0 0 0 0 0 0 0 0 0 0 0 0 0 0 0 0 0 0 0 0 0 0 0 0 0 0 0 0 0 0 0 0 0 0 0 0 0 0 0 0 0
0 0 0 0 0 0 0 0 0 0 0 0 0 0 0 0 0 0 0 0 0 0 0 0 0 0 0 0 0 0 0 0 0 0 0 0 0 0 0 0 0 0 0
0 0 0 0 0 0 0 0 0 0 0 0 0 0 0 0 0 0 0 0 0 0 0 0 0 0 0 0 0 0 0 0 0 0 0 0 0 0 0 0 0 0 0
0 0 0 0 0 0 0 0 0 0 0 0 0 0 0 0 0 0 0 0 0 0 0 0 0 0 0 0 0 0 0 0 0 0 0 0 0 0 0 0 0 0 0
Wind_Speed
2 2 1 1 1 1 1 2 2 2 2 2 2 3 3 3 3 3 2 6 7 7 7 7 7 7 7 7 7 7 7 7 7 7 7 7 7 7 7 7 7 6 6
3 2 2 1 1 1 1 1 2 2 2 2 2 2 2 3 3 3 2 4 7 8 8 7 8 8 8 8 8 8 7 7 7 7 7 8 8 7 7 7 7 7 7
3 3 2 1 1 1 1 2 2 2 2 2 2 2 2 2 3 3 2 2 3 6 8 8 8 8 8 8 7 7 7 7 7 7 7 7 7 7 7 7 7 7 7
3 3 2 1 1 1 2 2 2 2 2 2 1 1 1 2 3 3 3 2 2 3 5 8 8 8 8 8 7 7 7 7 7 7 7 7 7 7 7 6 7 7 7
3 3 2 2 2 2 2 2 2 2 2 2 1 1 1 2 2 2 2 3 3 2 2 5 7 8 8 8 7 7 7 7 6 6 7 7 7 7 7 7 7 7 8
3 2 2 2 2 2 2 2 2 2 1 1 1 2 2 1 1 2 2 2 2 2 2 3 3 4 7 7 8 8 7 7 7 7 7 7 7 7 7 7 7 7 8
3 3 2 2 2 2 2 2 1 2 2 1 2 2 2 2 1 1 1 1 1 2 2 2 2 2 2 6 7 8 8 8 8 8 7 7 7 7 7 7 6 7 7
2 2 2 2 2 2 2 2 2 1 1 1 2 2 1 2 2 1 1 1 1 1 1 1 1 1 1 1 4 7 8 8 8 8 8 7 7 7 7 7 7 7 7
2 2 2 2 2 2 2 1 2 2 1 1 1 2 2 2 2 2 1 0 0 0 1 0 0 0 0 1 2 5 7 8 9 8 8 8 8 8 8 8 8 8 8
2 2 2 2 2 2 2 2 2 2 2 1 0 1 1 2 1 2 2 2 1 1 2 1 1 1 0 0 1 4 6 7 8 9 9 9 9 9 10 9 9 8 8
1 1 2 2 2 2 2 2 2 2 2 2 1 0 1 1 1 2 2 3 3 2 2 2 2 1 1 1 1 2 5 7 8 9 10 10 10 10 10 10 10 9 9
0 1 2 2 2 2 2 2 2 2 2 2 1 1 1 1 1 1 2 2 3 3 3 2 2 2 1 1 2 3 5 6 8 9 10 10 10 10 11 10 10 10 9
1 2 2 2 2 2 2 2 2 2 2 2 2 2 2 2 2 2 2 2 2 3 3 2 2 1 1 1 2 4 5 7 9 10 10 11 11 11 11 10 10 9 9
3 3 2 2 2 2 2 2 1 2 2 2 3 2 2 2 2 2 2 2 1 3 3 4 2 2 1 1 3 4 3 7 9 10 11 11 10 10 10 10 9 9 9
2 3 3 3 2 2 2 2 2 2 2 3 3 3 2 2 2 2 2 3 3 2 4 3 2 2 1 2 4 2 3 7 9 10 10 10 10 10 9 9 9 9 9
2 3 2 2 2 2 2 2 2 2 2 3 3 3 3 2 2 2 2 2 3 4 4 3 3 2 2 3 5 3 4 9 9 10 11 11 10 10 9 9 9 9 9
3 3 3 3 3 3 2 2 3 3 3 3 3 4 4 3 2 2 2 2 3 3 5 4 3 2 3 4 4 3 4 4 4 10 11 11 11 10 10 9 9 9 9
3 3 3 3 3 3 3 4 4 4 4 5 4 4 4 3 3 3 3 4 4 4 4 6 3 3 4 4 4 4 4 4 4 9 11 11 10 10 10 10 10 10 9
3 3 3 3 4 4 4 4 4 4 5 5 5 5 5 4 5 4 4 4 4 4 4 4 4 3 3 3 3 4 4 3 4 7 9 10 10 11 11 11 11 10 9
3 3 3 3 4 3 3 4 4 4 4 4 5 5 5 5 6 5 5 5 4 4 3 3 4 3 3 3 2 3 4 3 4 4 6 7 9 11 11 11 11 11 10
3 3 3 3 3 3 3 4 4 4 4 4 4 5 5 7 8 7 5 5 4 4 3 3 4 3 4 3 3 2 4 4 4 3 3 3 4 3 5 8 10 11 11
2 2 2 3 3 3 5 6 4 3 4 4 4 4 4 5 7 9 10 9 7 6 5 4 4 5 6 4 3 3 3 3 4 2 2 4 2 4 4 4 10 13 12
2 2 2 2 3 4 6 6 6 3 3 4 4 4 4 4 5 4 6 8 8 10 10 6 6 7 6 5 4 4 4 5 5 3 2 5 3 4 4 6 12 13 12
2 2 2 3 3 4 6 6 6 3 3 4 4 5 5 5 5 4 4 4 5 5 7 5 6 6 6 5 5 5 5 5 4 3 2 4 3 4 4 4 10 11 11
1 2 2 2 3 4 6 6 5 2 3 4 4 4 4 5 8 8 4 4 5 5 7 8 9 9 11 11 7 3 2 3 5 3 3 3 3 3 3 4 6 9 9
2 2 2 2 3 4 6 6 4 2 2 3 3 3 6 6 8 8 4 4 5 5 4 4 5 7 6 7 9 5 4 4 4 4 2 2 2 2 4 3 2 3 4
Wind_Direction
116 109 93 71 49 43 58 48 43 44 49 53 61 76 79 78 73 64 41 50 49 46 46 49 50 48 47 48 50 49 45 41 36 34 31 26 23 20 16 13 11 3 355
121 118 101 78 50 40 60 74 68 62 49 59 61 70 91 93 85 77 59 46 49 47 45 44 44 44 43 43 46 46 44 38 32 28 25 22 19 15 11 6 8 6 360
116 119 111 89 50 45 63 69 59 60 56 53 54 59 84 87 87 81 73 61 49 48 49 47 41 39 37 38 40 43 41 35 31 26 22 17 12 8 4 4 3 359 354
114 117 112 97 64 63 63 74 66 63 49 47 46 46 70 87 87 84 77 72 64 52 44 50 45 40 37 34 33 36 34 29 25 21 17 11 6 7 5 3 360 357 354
110 118 121 110 90 78 61 70 71 77 58 36 38 62 72 94 99 92 81 79 77 75 57 51 47 42 36 30 25 25 25 21 15 12 7 4 1 1 360 360 358 355 351
113 104 121 114 110 96 69 72 83 63 72 50 43 44 39 58 83 94 98 88 83 81 73 63 44 34 34 27 19 14 11 9 4 1 357 356 357 354 351 351 352 351 350
113 105 111 105 105 111 118 108 100 78 43 41 64 36 17 29 58 70 75 84 77 74 81 76 58 45 19 22 14 8 1 357 354 354 354 351 349 349 347 350 350 348 346
125 122 113 119 109 107 96 93 90 101 52 50 101 102 23 350 352 19 27 87 61 42 58 67 74 67 45 18 360 7 360 353 351 351 350 352 349 345 347 348 344 341 340
130 126 133 133 126 123 135 130 119 119 122 15 72 128 137 220 300 318 313 343 351 306 299 291 199 94 73 31 347 353 357 350 347 348 348 347 345 344 344 346 345 340 338
144 143 147 139 143 144 147 157 141 142 142 151 15 50 141 159 162 307 317 319 312 281 275 268 248 247 227 324 331 347 352 345 342 344 343 343 341 340 340 340 340 341 338
148 153 159 149 155 155 163 158 151 150 151 161 162 141 71 57 127 167 276 307 317 290 271 257 238 231 233 245 279 314 338 337 335 335 334 334 336 336 335 336 336 337 336
251 205 183 173 177 180 180 177 165 160 159 162 163 164 165 169 189 175 232 275 288 289 287 267 239 232 231 235 272 308 320 326 325 324 324 326 330 330 329 329 331 335 335
225 229 207 196 195 200 198 183 173 178 177 179 187 196 194 199 185 179 196 254 283 293 300 288 252 230 228 223 268 290 300 313 316 315 315 319 324 325 323 323 324 327 327
217 211 207 204 205 201 194 180 186 197 186 195 205 203 206 217 194 190 186 185 285 299 291 281 285 242 245 248 267 286 291 304 308 309 310 313 316 316 315 316 318 319 321
215 201 201 204 208 204 195 178 201 213 197 205 211 212 214 221 208 203 190 178 183 250 274 274 282 274 265 260 270 271 270 291 302 306 307 306 305 304 306 309 312 313 315
210 197 202 203 207 211 199 188 210 217 209 219 211 212 221 220 217 210 201 201 193 202 248 261 256 271 271 273 277 271 264 287 295 300 302 302 301 302 302 304 306 307 308
205 205 207 203 209 216 211 206 221 219 222 235 231 221 232 226 221 223 212 209 208 198 238 267 253 262 259 262 281 273 268 267 278 290 294 295 295 295 297 298 298 298 299
211 211 206 207 215 218 214 213 225 224 223 231 236 230 240 234 231 227 219 221 221 212 220 257 268 259 254 254 259 267 271 267 263 282 288 289 289 290 293 294 293 292 292
209 213 208 214 221 222 220 222 223 228 229 231 231 230 235 227 236 232 229 230 231 228 216 236 262 257 266 267 272 273 270 274 275 279 283 284 286 287 289 288 288 290 289
205 217 224 225 225 225 225 230 227 232 236 237 236 234 235 229 234 233 234 233 229 230 223 233 254 263 262 263 253 268 286 277 280 281 276 281 283 286 286 286 288 288 286
214 217 224 235 233 228 229 228 225 228 232 246 250 245 242 242 243 242 238 228 219 226 229 237 250 260 261 260 255 249 270 288 283 261 273 279 281 279 281 284 288 283 282
223 216 223 231 239 242 241 238 229 224 230 239 254 258 257 254 257 262 262 253 230 221 225 234 247 251 261 255 251 252 264 285 289 266 262 279 251 261 264 259 274 277 277
219 224 226 228 244 253 255 255 248 235 233 240 246 255 263 256 263 251 265 271 264 256 247 239 246 253 258 250 243 252 247 247 256 257 257 276 259 265 264 271 278 274 273
215 229 237 234 244 261 267 265 264 245 239 245 245 243 248 261 257 253 246 257 259 261 259 249 243 253 253 250 236 244 252 259 262 253 212 267 270 266 277 273 274 272 276
228 238 247 247 250 269 275 274 269 229 242 256 256 251 249 255 269 275 257 256 270 272 271 261 257 262 267 270 267 254 249 261 280 269 207 238 269 284 278 267 271 274 276
221 232 254 257 255 265 279 282 275 225 243 261 267 262 262 267 278 281 255 242 262 270 269 276 273 275 273 273 275 252 230 248 269 274 219 215 257 291 296 276 270 279 279